Regional Weather Roundup
Issued by NWS San Angelo, TX

Current Version | Previous Version | Text Only | Print | Product List | Glossary On
Versions: 1 2 3 4 5 6 7 8 9 10 11 12 13 14 15 16 17 18 19 20 21 22 23 24 25 26 27 28 29 30 31 32 33 34 35 36 37 38 39 40 41 42 43 44 45 46 47 48 49 50
000
ASUS44 KSJT 211902
RWRSJT
WEST CENTRAL TEXAS REGIONAL WEATHER ROUNDUP
NATIONAL WEATHER SERVICE SAN ANGELO TX
100 PM CST FRI NOV 21 2014

NOTE: "FAIR" INDICATES FEW OR NO CLOUDS BELOW 12,000 FEET WITH NO
SIGNIFICANT WEATHER AND/OR OBSTRUCTIONS TO VISIBILITY.

TXZ049-054-064>066-071>073-076>078-098-099-113-114-127-128-139-140-
154-155-168>170-212000
...LOCATIONS ACROSS WEST CENTRAL TEXAS...

CITY           SKY/WX    TMP DP  RH WIND       PRES   REMARKS
SAN ANGELO     MOSUNNY   73  54  51 S13       30.02F
ABILENE        MOSUNNY   68  53  58 S16       30.03F
DYESS AFB      NOT AVBL
JUNCTION       PTSUNNY   74  55  51 S10       30.03F
SWEETWATER     NOT AVBL
BROWNWOOD      NOT AVBL
COLEMAN        CLOUDY    70  59  68 S13       30.04F
SONORA         NOT AVBL
OZONA          NOT AVBL
BRADY          NOT AVBL
$$

TEXAS PANHANDLE/OKLAHOMA PANHANDLE

CITY           SKY/WX    TMP DP  RH WIND       PRES   REMARKS
AMARILLO       SUNNY     55  38  52 S7        30.01F
BORGER         SUNNY     51  33  50 VRB3      30.00F
CANADIAN       SUNNY     48  35  60 CALM      30.01F
DALHART        MOSUNNY   57  28  33 S10       29.99F
DUMAS            N/A     56  31  39 S8        29.98F
GUYMON         NOT AVBL
HEREFORD       CLEAR     57  37  47 CALM      30.00F
PAMPA          NOT AVBL
PERRYTON       NOT AVBL
$$

SOUTHERN PANHANDLE/SOUTH PLAINS/ROLLING PLAINS

CITY           SKY/WX    TMP DP  RH WIND       PRES   REMARKS
LUBBOCK        SUNNY     62  31  31 CALM      30.00F
SNYDER         NOT AVBL
CHILDRESS      CLOUDY    44  40  85 CALM      30.04F FOG
SEMINOLE       NOT AVBL
$$

PERMIAN BASIN

CITY           SKY/WX    TMP DP  RH WIND       PRES   REMARKS
MIDLAND        MOSUNNY   67  47  48 S10       30.01F
ODESSA         MOSUNNY   66  44  45 S10       30.01F
WINK           MOSUNNY   65  41  41 VRB5      29.98F
$$

FAR WEST/SOUTHWEST MOUNTAINS/TRANS PECOS

CITY           SKY/WX    TMP DP  RH WIND       PRES   REMARKS
ALPINE         PTCLDY    70  32  24 S12       30.08F
DRYDEN           N/A     62  55  77 SE7       30.01F
EL PASO        PTSUNNY   65  22  19 W3        29.99F
FORT STOCKTON  SUNNY     68  46  45 SE15      29.99F
GUADALUPE PASS NOT AVBL
MARFA          SUNNY     66  34  30 SE13G18   30.06F
PECOS          NOT AVBL
$$

DALLAS/FORT WORTH METROPLEX

CITY           SKY/WX    TMP DP  RH WIND       PRES   REMARKS
DFW AIRPORT    CLOUDY    65  60  84 S13       30.07F
FTW MEACHAM    CLOUDY    68  60  75 SE12      30.05F
DAL-EXECUTIVE  CLOUDY    66  60  81 SE10      30.07F HAZE
GRAND PRAIRIE  CLOUDY    64  63  94 SE9       30.08F
ADDISON        CLOUDY    64  59  82 S12       30.08F FOG
MESQUITE       CLOUDY    64  61  88 SE8       30.09  FOG
LANCASTER      CLOUDY    64  59  83 SE12      30.08F
$$

NORTH CENTRAL TEXAS

CITY           SKY/WX    TMP DP  RH WIND       PRES   REMARKS
SHRMAN/DENISON CLOUDY    65  61  87 SE7       30.09F
GAINESVILLE    NOT AVBL
BRIDGEPORT     MOCLDY    73  59  62 S13       30.06F
DENTON         CLOUDY    65  59  81 E8        30.06F
WAXAHACHIE     CLOUDY    64  64  99 SE8       30.09F FOG
GRANBURY       NOT AVBL
$$

WESTERN NORTH TEXAS

CITY           SKY/WX    TMP DP  RH WIND       PRES   REMARKS
WICHITA FALLS  CLOUDY    61  51  70 SW7       30.03F
VERNON         NOT AVBL
BRECKENRIDGE   NOT AVBL
COMANCHE       CLOUDY    72  59  63 S14       30.04F
$$

CENTRAL AND SOUTH CENTRAL TEXAS

CITY           SKY/WX    TMP DP  RH WIND       PRES   REMARKS
AUSTIN/BERGSTM PTSUNNY   72  66  81 S10       30.05F
WACO           CLOUDY    67  62  84 S12       30.07F
HILLSBORO      NOT AVBL
TEMPLE         CLOUDY    66  61  82 SE12      30.06F
KILLEEN-GRAY   MOSUNNY   73  62  67 S9        30.04F
FORT HOOD      PTSUNNY   73  64  73 SE7       30.04F
GEORGETOWN     PTSUNNY   72  64  78 S8G18     30.05F
LAGO VISTA     MOCLDY    74  62  67 S8G16     30.06F
SAN MARCOS     CLOUDY   N/A N/A N/A S14       30.06F
NEW BRAUNFELS  CLOUDY    74  65  73 S17       30.04F
RANDOLPH AFB   CLOUDY    70  66  88 S9        30.05F
SAN ANTONIO    LGT RAIN  71  66  84 SE10      30.05F
STINSON        CLOUDY    71  66  84 S9        30.03F
PLEASANTON     NOT AVBL
LA GRANGE      LGT RAIN  71  68  92 SE5       30.06F
GIDDINGS       CLOUDY    67  66  97 SE5       30.11F
$$

EAST TEXAS

CITY           SKY/WX    TMP DP  RH WIND       PRES   REMARKS
PARIS          CLOUDY    59  57  94 SE10      30.13F
CLARKSVILLE    NOT AVBL
TYLER          LGT RAIN  63  59  87 SE10      30.12F
LONGVIEW       CLOUDY    61  59  93 S10       30.14F
PALESTINE      CLOUDY    64  62  93 SE7       30.13F
NACOGDOCHES    CLOUDY    61  57  88 SE7       30.15F
$$

TEXAS HILL COUNTRY AND EDWARDS PLATEAU

CITY           SKY/WX    TMP DP  RH WIND       PRES   REMARKS
LLANO          NOT AVBL
HORSESHOE BAY  MOCLDY    77  59  53 S8G16     30.05F
KERRVILLE      NOT AVBL
FREDERICKSBRG  NOT AVBL
ROCKSPRINGS    NOT AVBL
HONDO          LGT RAIN  66  64  93 SE12      30.06F
UVALDE         CLOUDY    73  65  77 SE9       30.04F
DEL RIO        CLOUDY    67  62  84 SE9       30.00F
$$

SOUTHEAST TEXAS

CITY           SKY/WX    TMP DP  RH WIND       PRES   REMARKS
COLLEGE STN    CLOUDY    66  64  93 SE13      30.09F
CALDWELL       NOT AVBL
CROCKETT       NOT AVBL
BRENHAM        CLOUDY    68  67  96 E3        30.10F
HUNTSVILLE     CLOUDY    67  64  90 VRB7      30.12F
CONROE         LGT RAIN  64  63  96 SE8       30.13F FOG
HOUSTON BUSH   CLOUDY    66  64  93 SE13      30.12F
HOUSTON HOBBY  LGT RAIN  66  65  96 E5        30.12F FOG
PERLAND        RAIN      68  66  93 SE9       30.14F FOG
WHARTON        NOT AVBL
$$

THE UPPER TEXAS COAST

CITY           SKY/WX    TMP DP  RH WIND       PRES   REMARKS
ORANGE         CLOUDY    68  59  72 SE15G22   30.18F
PORT ARTHUR    CLOUDY    68  60  75 SE16G25   30.15F
GALVESTON      LGT RAIN  67  65  93 SE3       30.14F
ANGLETON       LGT RAIN  67  67 100 E8        30.11F
BAY CITY         N/A     71  69  94 SE6       30.09F
$$

TEXAS COASTAL BEND, RIO GRANDE PLAINS DEEP SOUTH TEXAS

CITY           SKY/WX    TMP DP  RH WIND       PRES   REMARKS
VICTORIA       CLOUDY    76  67  73 S24       30.06F
BEEVILLE       CLOUDY    75  69  81 S17G23    30.03F
ROCKPORT       SUNNY     76  67  73 S13G23    30.05F
PORT ARANSAS   NOT AVBL
PORT LAVACA    CLOUDY    75  67  76 S20       30.07F
CORPUS CHRISTI PTSUNNY   79  67  66 SE22G30   30.04F
KINGSVILLE NAS CLOUDY    78  68  71 SE22G31   30.03F
COTULLA        CLOUDY    75  66  73 SE10      30.01F
LAREDO         PTSUNNY   79  65  62 S16       30.01F
BROWNSVILLE    PTSUNNY   79  68  69 SE20G32   30.04F
PORT ISABEL    CLOUDY    78  67  68 SE24G33   30.03F
HEBBRONVILLE   NOT AVBL
MCALLEN        LGT RAIN  75  70  84 SE15G21   30.02F
WESLACO        NOT AVBL
FALFURRIAS     CLOUDY    77  68  73 SE18G24   30.01F
EDINBURG       CLOUDY    77  70  79 SE15G22   30.03F
$$



USA.gov is the U.S. government's official web portal to all federal, state and local government web resources and services.